sat.trackr.live / text

‹ back to catalog

STARLINK-31112

NORAD 58680 · 2023-211P

PAYLOAD ACTIVE UNKNOWN

§ Identity

Operator
Country
US
Launch date
2023-12-29
Launch site
AFETR
Launch vehicle
Mass (kg)
RCS (m²)

Purposes: comms

External: N2YO · Heavens-Above · Gunter

§ Orbital elements

Epoch: 2026-05-24T23:37:33.729024Z

Period
94.27 min
Inclination
42.9998°
Eccentricity
0.0001313
Mean motion
15.27592247 rev/d
Perigee alt
482.1 km
Apogee alt
483.9 km
Semi-major
6,861.1 km
B*
2.2334e-4
RAAN
14.3410°
Arg perigee
270.5992°
Mean anomaly
89.4709°
Rev number
13,531

§ Raw data

STARLINK-311121 58680U 23211P   26144.98441816  .00005891  00000+0  22334-3 0  99932 58680  42.9998  14.3410 0001313 270.5992  89.4709 15.27592247135319

JSON: /api/v1/satellites/58680 · /tle

For live sub-satellite position, see the globe view (requires WebGL).

§ Visibility from observer

Set your observer location to see the next 7 days of passes ≥ 10°. The values pass through the URL so the page stays shareable.

No JS? Fill the form by hand. The geolocation button needs JavaScript.